            UTC date,        Decimal date,     TCCON,      CAMS,       CSU,        OU, TM5-4DVAR,      Ames,        CT,        UT,      LoFI,     Baker,  CMS-Flux
 2014-07-15 15:16:24,   2014.535990106545,  394.3167,       nan,       nan,  397.6043,       nan,       nan,       nan,       nan,  395.7551,  396.3900,       nan
 2014-07-15 15:31:57,   2014.536019691781,  394.1933,       nan,       nan,  397.6048,       nan,       nan,       nan,       nan,  395.7555,  396.4100,       nan
 2014-07-15 15:58:35,   2014.536070364028,  394.1350,       nan,       nan,  397.3778,       nan,       nan,       nan,       nan,  395.5593,  396.2800,       nan
 2014-07-16 09:19:29,   2014.538050767377,  394.3500,       nan,       nan,  398.6867,       nan,       nan,       nan,       nan,  396.5226,  397.8500,       nan
 2014-07-16 10:48:10,   2014.538219495180,  394.1600,       nan,       nan,  398.6053,       nan,       nan,       nan,       nan,  396.6564,  397.8200,       nan
 2014-07-16 11:23:03,   2014.538285863775,  394.0267,       nan,       nan,  398.6055,       nan,       nan,       nan,       nan,  396.6560,  397.7900,       nan
 2014-07-16 11:27:54,   2014.538295091324,  394.0800,       nan,       nan,  398.6056,       nan,       nan,       nan,       nan,  396.6559,  397.7900,       nan
 2014-07-16 12:13:51,   2014.538382515221,  393.7533,       nan,       nan,  398.4194,       nan,       nan,       nan,       nan,  395.9997,  397.7400,       nan
 2014-07-16 12:35:50,   2014.538424340436,  393.8150,       nan,       nan,  398.3427,       nan,       nan,       nan,       nan,  395.9307,  397.6800,       nan
 2014-07-16 13:07:39,   2014.538484874429,  393.3066,       nan,       nan,  398.3430,       nan,       nan,       nan,       nan,  395.9306,  397.6400,       nan
 2014-07-16 13:31:56,   2014.538531075596,  393.6775,       nan,       nan,  398.0736,       nan,       nan,       nan,       nan,  395.8443,  397.5800,       nan
 2014-07-16 14:08:34,   2014.538600773719,  394.0350,       nan,       nan,  397.9438,       nan,       nan,       nan,       nan,  395.7330,  397.4800,       nan
 2014-07-16 14:35:52,   2014.538652714358,  394.1475,       nan,       nan,  397.8202,       nan,       nan,       nan,       nan,  395.6277,  397.4000,       nan
 2014-07-16 15:12:27,   2014.538722317352,  394.1150,       nan,       nan,  397.6158,       nan,       nan,       nan,       nan,  394.8813,  397.3100,       nan
 2014-07-16 15:39:41,   2014.538774131152,  394.2050,       nan,       nan,  397.3854,       nan,       nan,       nan,       nan,  394.6665,  397.2000,       nan
 2014-07-17 07:14:11,   2014.540552099188,  395.5900,       nan,       nan,  400.6065,       nan,       nan,       nan,       nan,  396.8017,  397.8800,       nan
 2014-07-17 07:43:35,   2014.540608035261,  395.5433,       nan,       nan,  398.9126,       nan,       nan,       nan,       nan,  396.9161,  397.9300,       nan
 2014-07-17 08:17:58,   2014.540673452562,  395.2150,       nan,       nan,  399.0256,       nan,       nan,       nan,       nan,  396.9962,  397.9500,       nan
 2014-07-17 08:45:18,   2014.540725456621,  395.6440,       nan,       nan,  399.1145,       nan,       nan,       nan,       nan,  397.0622,  397.9600,       nan
 2014-07-17 09:13:27,   2014.540779014460,  395.2400,       nan,       nan,  398.7065,       nan,       nan,       nan,       nan,  396.3607,  397.9700,       nan
 2014-07-17 09:46:20,   2014.540841577879,  395.4350,       nan,       nan,  398.7065,       nan,       nan,       nan,       nan,  396.3605,  397.9100,       nan
 2014-07-17 10:16:35,   2014.540899131152,  394.9534,       nan,       nan,  398.7887,       nan,       nan,       nan,       nan,  396.4257,  397.8800,       nan
 2014-07-17 10:41:54,   2014.540947298326,  394.9800,       nan,       nan,  398.5838,       nan,       nan,       nan,       nan,  396.4778,  397.8600,       nan
 2014-07-17 11:28:42,   2014.541036339422,  394.8400,       nan,       nan,  398.5839,       nan,       nan,       nan,       nan,  396.4774,  397.7700,       nan
 2014-07-17 12:05:44,   2014.541106798579,  394.6266,       nan,       nan,  398.3762,       nan,       nan,       nan,       nan,  396.1919,  397.6900,       nan
 2014-07-17 13:07:56,   2014.541225139523,  394.2075,       nan,       nan,  398.3046,       nan,       nan,       nan,       nan,  396.1352,  397.5600,       nan
 2014-07-17 13:44:22,   2014.541294457128,  394.5475,       nan,       nan,  398.0226,       nan,       nan,       nan,       nan,  396.0647,  397.4700,       nan
 2014-07-17 14:11:39,   2014.541346366058,  394.7175,       nan,       nan,  397.9016,       nan,       nan,       nan,       nan,  395.9739,  397.3800,       nan
 2014-07-17 14:44:58,   2014.541409753932,  394.3900,       nan,       nan,  397.7861,       nan,       nan,       nan,       nan,  395.8882,  397.2800,       nan
 2014-07-17 15:07:23,   2014.541452403602,  394.2700,       nan,       nan,  397.5722,       nan,       nan,       nan,       nan,  395.4923,  397.1900,       nan
 2014-07-18 08:43:50,   2014.543462392187,  396.3267,       nan,       nan,  399.3719,       nan,       nan,       nan,       nan,  396.9565,  397.9100,       nan
 2014-07-18 09:06:00,   2014.543504566210,  396.2050,       nan,       nan,  398.7125,       nan,       nan,       nan,       nan,  396.8966,  397.8800,       nan
 2014-07-18 09:38:07,   2014.543565670979,  396.0733,       nan,       nan,  398.8148,       nan,       nan,       nan,       nan,  396.9809,  397.8800,       nan
 2014-07-18 10:02:33,   2014.543612157534,  395.3425,       nan,       nan,  398.8941,       nan,       nan,       nan,       nan,  397.0463,  397.8800,       nan
 2014-07-18 10:39:23,   2014.543682236175,  395.2150,       nan,       nan,  398.5890,       nan,       nan,       nan,       nan,  397.0459,  397.8100,       nan
 2014-07-18 11:06:50,   2014.543734462202,  395.3600,       nan,       nan,  398.6578,       nan,       nan,       nan,       nan,  397.0979,  397.7900,       nan
 2014-07-18 11:43:33,   2014.543804318874,  395.3100,       nan,       nan,  398.6579,       nan,       nan,       nan,       nan,  397.0969,  397.7000,       nan
 2014-07-18 12:10:59,   2014.543856513191,  395.1675,       nan,       nan,  398.4649,       nan,       nan,       nan,       nan,  397.0872,  397.6300,       nan
 2014-07-18 12:44:37,   2014.543920503552,  395.2133,       nan,       nan,  398.3935,       nan,       nan,       nan,       nan,  397.0328,  397.5200,       nan
 2014-07-18 13:11:29,   2014.543971619736,  395.2260,       nan,       nan,  398.3937,       nan,       nan,       nan,       nan,  397.0328,  397.4600,       nan
 2014-07-18 13:43:24,   2014.544032343988,  395.2350,       nan,       nan,  398.1189,       nan,       nan,       nan,       nan,  396.9647,  397.3400,       nan
 2014-07-18 14:12:55,   2014.544088502029,  395.2950,       nan,       nan,  397.9981,       nan,       nan,       nan,       nan,  396.8767,  397.2000,       nan
 2014-07-18 14:47:31,   2014.544154331558,  395.2150,       nan,       nan,  397.8831,       nan,       nan,       nan,       nan,  396.7933,  397.0500,       nan
 2014-07-18 15:11:20,   2014.544199644850,  395.2833,       nan,       nan,  397.6651,       nan,       nan,       nan,       nan,  396.3032,  396.9300,       nan
 2014-07-18 15:43:25,   2014.544260686200,  395.3133,       nan,       nan,  397.4503,       nan,       nan,       nan,       nan,  396.1382,  396.7700,       nan
 2014-07-19 08:14:14,   2014.546145801624,  395.3833,       nan,       nan,  399.3101,       nan,       nan,       nan,       nan,  397.3798,  397.4800,       nan
 2014-07-19 08:36:06,   2014.546187404871,  395.3400,       nan,       nan,  399.3908,       nan,       nan,       nan,       nan,  397.4382,  397.5100,       nan
 2014-07-19 09:07:43,   2014.546247558346,  395.4033,       nan,       nan,  398.6754,       nan,       nan,       nan,       nan,  396.9226,  397.4700,       nan
 2014-07-19 09:29:04,   2014.546288178590,  395.3600,       nan,       nan,  398.7837,       nan,       nan,       nan,       nan,  397.0030,  397.4900,       nan
 2014-07-19 10:38:11,   2014.546419679097,  395.4850,       nan,       nan,  398.5474,       nan,       nan,       nan,       nan,  397.0634,  397.4100,       nan
 2014-07-19 11:11:50,   2014.546483701167,  395.4050,       nan,       nan,  398.6201,       nan,       nan,       nan,       nan,  397.1132,  397.3800,       nan
 2014-07-19 11:41:47,   2014.546540683663,  395.5700,       nan,       nan,  398.6204,       nan,       nan,       nan,       nan,  397.1123,  397.3200,       nan
 2014-07-19 12:15:25,   2014.546604674023,  395.3875,       nan,       nan,  398.4463,       nan,       nan,       nan,       nan,  396.8784,  397.2400,       nan
 2014-07-19 12:42:38,   2014.546656456114,  395.4200,       nan,       nan,  398.3711,       nan,       nan,       nan,       nan,  396.8200,  397.1300,       nan
 2014-07-19 13:10:39,   2014.546709760274,  395.2350,       nan,       nan,  398.3714,       nan,       nan,       nan,       nan,  396.8201,  397.0800,       nan
 2014-07-19 13:40:00,   2014.546765601218,  395.3367,       nan,       nan,  398.1238,       nan,       nan,       nan,       nan,  396.7471,  396.9600,       nan
 2014-07-23 07:16:02,   2014.556993975139,  394.0750,       nan,       nan,  396.8530,       nan,       nan,       nan,       nan,  392.8246,  393.3800,       nan
 2014-07-23 07:32:16,   2014.557024860477,  394.0150,       nan,       nan,  396.2366,       nan,       nan,       nan,       nan,  392.8246,  393.3800,       nan
 2014-07-23 08:09:14,   2014.557095192795,  394.1034,       nan,       nan,  396.6470,       nan,       nan,       nan,       nan,  393.2655,  393.8000,       nan
 2014-07-23 08:40:58,   2014.557155568240,  393.3300,       nan,       nan,  396.7785,       nan,       nan,       nan,       nan,  393.4007,  393.9100,       nan
 2014-07-23 09:08:02,   2014.557207064942,  393.4000,       nan,       nan,  396.3427,       nan,       nan,       nan,       nan,  392.9164,  393.8700,       nan
 2014-07-23 09:42:26,   2014.557272513952,  392.7150,       nan,       nan,  396.4924,       nan,       nan,       nan,       nan,  393.0864,  393.9600,       nan
 2014-07-23 10:38:38,   2014.557379439371,  392.5060,       nan,       nan,  396.2442,       nan,       nan,       nan,       nan,  393.2173,  393.9900,       nan
 2014-07-23 11:13:47,   2014.557446315322,  392.7000,       nan,       nan,  396.3417,       nan,       nan,       nan,       nan,  393.3216,  394.0100,       nan
 2014-07-23 15:39:10,   2014.557951230340,  391.0550,       nan,       nan,  394.6713,       nan,       nan,       nan,       nan,  391.6619,  392.6900,       nan
 2014-07-24 07:16:56,   2014.559735413496,  393.3500,       nan,       nan,  396.0748,       nan,       nan,       nan,       nan,  393.6062,  393.0400,       nan
 2014-07-24 07:45:09,   2014.559789098173,  393.3200,       nan,       nan,  395.5054,       nan,       nan,       nan,       nan,  393.7987,  393.2300,       nan
 2014-07-24 08:14:36,   2014.559845129376,  393.0617,       nan,       nan,  395.6849,       nan,       nan,       nan,       nan,  393.9377,  393.3300,       nan
 2014-07-24 08:49:03,   2014.559910673516,  392.7400,       nan,       nan,  395.8247,       nan,       nan,       nan,       nan,  394.0432,  393.3700,       nan
 2014-07-24 09:13:53,   2014.559957921106,  392.6150,       nan,       nan,  395.4098,       nan,       nan,       nan,       nan,  393.2040,  393.2900,       nan
 2014-07-24 09:40:06,   2014.560007800609,  392.5550,       nan,       nan,  395.5684,       nan,       nan,       nan,       nan,  393.3422,  393.3400,       nan
 2014-07-24 10:14:25,   2014.560073091071,  392.9800,       nan,       nan,  395.6910,       nan,       nan,       nan,       nan,  393.4491,  393.3300,       nan
 2014-07-24 10:36:22,   2014.560114852866,  392.9600,       nan,       nan,  395.3818,       nan,       nan,       nan,       nan,  393.4489,  393.2500,       nan
 2014-07-24 10:57:28,   2014.560154997463,  393.0200,       nan,       nan,  395.3818,       nan,       nan,       nan,       nan,  393.4489,  393.1600,       nan
 2014-07-24 11:34:53,   2014.560226185946,  392.2300,       nan,       nan,  395.4842,       nan,       nan,       nan,       nan,  393.5342,  393.1200,       nan
 2014-07-24 12:01:01,   2014.560275906900,  392.1300,       nan,       nan,  395.2660,       nan,       nan,       nan,       nan,  393.0305,  393.0100,       nan
 2014-07-24 12:36:56,   2014.560344241502,  392.0533,       nan,       nan,  395.1626,       nan,       nan,       nan,       nan,  392.9371,  392.8000,       nan
 2014-07-24 13:14:48,   2014.560416286149,  392.1233,       nan,       nan,  395.0321,       nan,       nan,       nan,       nan,  392.8197,  392.5600,       nan
 2014-07-24 13:39:24,   2014.560463089802,  392.3600,       nan,       nan,  394.8441,       nan,       nan,       nan,       nan,  392.8200,  392.5000,       nan
 2014-07-24 14:15:54,   2014.560532534246,  391.6775,       nan,       nan,  394.6723,       nan,       nan,       nan,       nan,  392.6682,  392.2300,       nan
 2014-07-24 14:43:10,   2014.560584411466,  391.9650,       nan,       nan,  394.5097,       nan,       nan,       nan,       nan,  392.5252,  391.9900,       nan
 2014-07-24 15:11:15,   2014.560637842466,  392.0100,       nan,       nan,  394.2462,       nan,       nan,       nan,       nan,  391.7844,  391.7300,       nan
 2014-07-24 15:40:37,   2014.560693715119,  391.8267,       nan,       nan,  393.9490,       nan,       nan,       nan,       nan,  391.5026,  391.3700,       nan
 2014-07-25 08:15:28,   2014.562586504313,  390.6033,       nan,       nan,  395.4150,       nan,       nan,       nan,       nan,  391.8595,  392.4000,       nan
 2014-07-25 08:50:00,   2014.562652207002,  390.1550,       nan,       nan,  395.5581,       nan,       nan,       nan,       nan,  392.0085,  392.5500,       nan
 2014-07-25 09:06:52,   2014.562684297311,  390.2750,       nan,       nan,  395.2627,       nan,       nan,       nan,       nan,  391.5903,  392.5400,       nan
 2014-07-25 11:48:45,   2014.562992294521,  390.0500,       nan,       nan,  395.4279,       nan,       nan,       nan,       nan,  391.9949,  392.7600,       nan
 2014-07-25 12:07:38,   2014.563028221715,  389.8925,       nan,       nan,  395.1783,       nan,       nan,       nan,       nan,  391.9400,  392.6400,       nan
 2014-07-25 12:44:06,   2014.563097602740,  390.2525,       nan,       nan,  395.1791,       nan,       nan,       nan,       nan,  391.9402,  392.6100,       nan
 2014-07-25 13:11:22,   2014.563149479960,  390.2175,       nan,       nan,  395.0505,       nan,       nan,       nan,       nan,  391.8088,  392.4600,       nan
 2014-07-25 13:44:49,   2014.563213121512,  390.0100,       nan,       nan,  394.9239,       nan,       nan,       nan,       nan,  391.8089,  392.4300,       nan
 2014-07-25 14:11:32,   2014.563263952308,  390.2060,       nan,       nan,  394.7550,       nan,       nan,       nan,       nan,  391.6403,  392.2500,       nan
 2014-07-25 14:43:10,   2014.563324137494,  390.7550,       nan,       nan,  394.5956,       nan,       nan,       nan,       nan,  391.4821,  392.0600,       nan
 2014-07-25 15:12:32,   2014.563380010147,  391.3967,       nan,       nan,  394.3860,       nan,       nan,       nan,       nan,  391.4070,  391.8600,       nan
 2014-07-25 15:46:56,   2014.563445459158,  391.6150,       nan,       nan,  394.0955,       nan,       nan,       nan,       nan,  391.1239,  391.5600,       nan
 2014-07-31 14:44:43,   2014.579765442669,  391.6550,       nan,       nan,  396.0727,       nan,       nan,       nan,       nan,  393.4341,  394.9100,       nan
 2014-07-31 15:03:43,   2014.579801591831,  391.7875,       nan,       nan,  395.8562,       nan,       nan,       nan,       nan,  393.2101,  394.7600,       nan
 2014-08-01 08:10:51,   2014.581755802892,  392.2500,       nan,       nan,  397.2306,       nan,       nan,       nan,       nan,  394.2822,  395.6500,       nan
 2014-08-01 08:29:32,   2014.581791349569,  392.0566,       nan,       nan,  397.3730,       nan,       nan,       nan,       nan,  394.4285,  395.7500,       nan
 2014-08-01 09:05:04,   2014.581858954845,  392.0967,       nan,       nan,  397.0880,       nan,       nan,       nan,       nan,  393.7768,  395.7900,       nan
 2014-08-01 09:36:53,   2014.581919488838,  391.7200,       nan,       nan,  397.2173,       nan,       nan,       nan,       nan,  393.9162,  395.8300,       nan
 2014-08-01 12:39:14,   2014.582266425672,  391.0800,       nan,       nan,  396.9817,       nan,       nan,       nan,       nan,  393.6727,  395.5400,       nan
 2014-08-01 13:14:04,   2014.582332699137,  390.5100,       nan,       nan,  396.8744,       nan,       nan,       nan,       nan,  393.5575,  395.4000,       nan
 2014-08-01 13:43:30,   2014.582388698630,  390.5250,       nan,       nan,  396.6185,       nan,       nan,       nan,       nan,  393.4090,  395.2400,       nan
 2014-08-01 14:18:01,   2014.582454369609,  390.5350,       nan,       nan,  396.4838,       nan,       nan,       nan,       nan,  393.2689,  395.0900,       nan
 2014-08-04 09:12:05,   2014.590091482750,  392.7800,       nan,       nan,  397.3088,       nan,       nan,       nan,       nan,  393.0598,  396.0300,       nan
 2014-08-04 09:40:40,   2014.590145865043,  392.1300,       nan,       nan,  397.4297,       nan,       nan,       nan,       nan,  393.2039,  396.0900,       nan
 2014-08-04 10:45:19,   2014.590268867326,  392.2400,       nan,       nan,  397.2010,       nan,       nan,       nan,       nan,  393.3158,  396.0900,       nan
 2014-08-04 11:02:11,   2014.590300957636,  392.3650,       nan,       nan,  397.2008,       nan,       nan,       nan,       nan,  393.3152,  396.0700,       nan
 2014-08-04 11:49:06,   2014.590390220700,  392.0400,       nan,       nan,  397.2007,       nan,       nan,       nan,       nan,  393.3146,  396.0200,       nan
 2014-08-04 12:20:38,   2014.590450215627,  391.7500,       nan,       nan,  396.9645,       nan,       nan,       nan,       nan,  393.1453,  395.9900,       nan
 2014-08-04 13:17:25,   2014.590558250888,  392.5150,       nan,       nan,  396.8630,       nan,       nan,       nan,       nan,  393.0267,  395.8700,       nan
 2014-08-04 13:27:25,   2014.590577276763,  392.0000,       nan,       nan,  396.8630,       nan,       nan,       nan,       nan,  393.0267,  395.8600,       nan
 2014-08-06 08:45:30,   2014.595520357686,  391.9050,       nan,       nan,  396.7451,       nan,       nan,       nan,       nan,  393.8712,  395.4800,       nan
 2014-08-06 09:04:27,   2014.595556411720,  392.0100,       nan,       nan,  396.5585,       nan,       nan,       nan,       nan,  393.5423,  395.5500,       nan
 2014-08-06 09:41:02,   2014.595626014713,  391.9600,       nan,       nan,  396.6782,       nan,       nan,       nan,       nan,  393.6708,  395.6100,       nan
 2014-08-06 10:05:33,   2014.595672659817,  392.0500,       nan,       nan,  396.6779,       nan,       nan,       nan,       nan,  393.6703,  395.5800,       nan
 2014-08-06 10:35:56,   2014.595730466768,  392.0600,       nan,       nan,  396.6039,       nan,       nan,       nan,       nan,  393.7706,  395.6200,       nan
 2014-08-07 13:14:58,   2014.598772767631,  390.6850,       nan,       nan,  396.4795,       nan,       nan,       nan,       nan,  393.3208,  395.5300,       nan
 2014-08-07 13:33:10,   2014.598807394724,  390.2900,       nan,       nan,  396.1806,       nan,       nan,       nan,       nan,  393.1836,  395.4200,       nan
 2014-08-07 14:10:06,   2014.598877663622,  389.8900,       nan,       nan,  396.0579,       nan,       nan,       nan,       nan,  393.0546,  395.2800,       nan
 2014-08-08 07:47:04,   2014.600888635211,  392.9500,       nan,       nan,  397.0049,       nan,       nan,       nan,       nan,  394.3308,  395.8500,       nan
 2014-08-08 08:10:42,   2014.600933599696,  392.5160,       nan,       nan,  397.1842,       nan,       nan,       nan,       nan,  394.4970,  395.9800,       nan
 2014-08-08 08:42:25,   2014.600993943430,  392.7650,       nan,       nan,  397.3107,       nan,       nan,       nan,       nan,  394.6112,  396.0800,       nan
 2014-08-08 09:10:47,   2014.601047913496,  392.5440,       nan,       nan,  397.0938,       nan,       nan,       nan,       nan,  394.5207,  396.1700,       nan
 2014-08-08 09:46:13,   2014.601115328514,  392.6000,       nan,       nan,  397.2130,       nan,       nan,       nan,       nan,  394.6482,  396.2400,       nan
 2014-08-08 10:13:48,   2014.601167808219,  392.6500,       nan,       nan,  397.2127,       nan,       nan,       nan,       nan,  394.6477,  396.2400,       nan
 2014-08-11 08:23:24,   2014.609176940639,  391.2400,       nan,       nan,  396.7850,       nan,       nan,       nan,       nan,  392.5053,  394.2000,       nan
 2014-08-11 08:44:14,   2014.609216577879,  390.9300,       nan,       nan,  396.9199,       nan,       nan,       nan,       nan,  392.6819,  394.3100,       nan
 2014-08-11 09:14:52,   2014.609274860477,  390.7467,       nan,       nan,  396.7120,       nan,       nan,       nan,       nan,  392.1359,  394.3800,       nan
 2014-08-11 09:27:10,   2014.609298262303,  390.5600,       nan,       nan,  396.7121,       nan,       nan,       nan,       nan,  392.1359,  394.3700,       nan
 2014-08-11 10:40:49,   2014.609438387874,  390.0650,       nan,       nan,  396.5468,       nan,       nan,       nan,       nan,  392.2881,  394.3900,       nan
 2014-08-11 11:33:37,   2014.609538844495,  389.8850,       nan,       nan,  396.6445,       nan,       nan,       nan,       nan,  392.4064,  394.4200,       nan
 2014-08-11 12:52:19,   2014.609688578133,  389.1800,       nan,       nan,  396.3348,       nan,       nan,       nan,       nan,  392.1329,  394.2500,       nan
 2014-08-11 13:55:22,   2014.609808536276,  390.0800,       nan,       nan,  396.0132,       nan,       nan,       nan,       nan,  391.9737,  394.0800,       nan
 2014-08-11 14:01:10,   2014.609819571284,  389.8700,       nan,       nan,  395.8847,       nan,       nan,       nan,       nan,  391.8236,  393.9700,       nan
 2014-08-11 14:36:12,   2014.609886225266,  389.6575,       nan,       nan,  395.7209,       nan,       nan,       nan,       nan,  391.6322,  393.7800,       nan
 2014-08-11 15:00:44,   2014.609932902080,  389.8850,       nan,       nan,  395.6633,       nan,       nan,       nan,       nan,  391.5417,  393.7600,       nan
 2014-08-11 15:31:38,   2014.609991692035,  389.7850,       nan,       nan,  395.4301,       nan,       nan,       nan,       nan,  391.2557,  393.5500,       nan
 2014-08-12 09:13:40,   2014.612012303399,  390.9200,       nan,       nan,  396.2874,       nan,       nan,       nan,       nan,  392.4156,  394.2600,       nan
 2014-08-12 09:55:37,   2014.612092116946,  391.1900,       nan,       nan,  396.4139,       nan,       nan,       nan,       nan,  392.5758,  394.3300,       nan
 2014-08-12 11:19:53,   2014.612252441654,  390.6450,       nan,       nan,  396.3004,       nan,       nan,       nan,       nan,  392.6998,  394.3100,       nan
 2014-08-12 11:45:14,   2014.612300672248,  390.7800,       nan,       nan,  396.3005,       nan,       nan,       nan,       nan,  392.6996,  394.2800,       nan
 2014-08-12 12:13:36,   2014.612354642313,  391.0160,       nan,       nan,  396.0469,       nan,       nan,       nan,       nan,  392.4435,  394.1600,       nan
 2014-08-12 13:05:06,   2014.612452625571,  390.6000,       nan,       nan,  396.0475,       nan,       nan,       nan,       nan,  392.4440,  394.1200,       nan
 2014-08-12 13:27:45,   2014.612495719178,  390.5300,       nan,       nan,  395.9122,       nan,       nan,       nan,       nan,  392.2838,  393.9900,       nan